NIMBUS 2 DEB, 59971

Orbit data source: Space-Track

NIMBUS 2 DEB, 59971 is space debris in SSO originally from a launch on Sun, 15 May 1966 UTC launched from the Air Force Western Test Range (AFWTR). Debris objects in space refer to the collection of defunct objects orbiting the Earth. Examples of debris include non-operational satellites, rocket bodies, and fragments generated from explosions, collisions, or faulty payload assembly.

Loading next visibility...
Identifier
59971, 1966-040CA
Orbit
SSO
Country
Flag of USUS
Related business
Manufacturer
Unknown
Mission
Spacecraft
Bus & Motor
Unknown
Mass
Unknown
Launch date (UTC)
1966-05-15 (60 years ago)
Launch vehicle
Unknown
Launch site
Air Force Western Test Range (AFWTR)
Object type
Payload
Rocket body
Debris
Shape & HBR
Unknown shape, 0.1 m
Radar Cross Section
Small (<0.1 m²)

Expand to show TLE details & history
Last TLE update: 2 days ago

TLE from 2 days ago
0 NIMBUS 2 DEB
1 59971U 66040CA  26171.31513366  .00001181  00000-0  22169-2 0  9995
2 59971 100.4357  20.2303 0053760 248.8018 110.7360 13.40614812259740
Epoch: 2026-06-20T07:33Z
TLE epoch observation values (Epoch: 2026-06-20T07:33:47.548Z)
Latitude
0.00004°
Longitude
-1.74935°
Altitude
1,124.175 km
Speed
7.284 km/s
True Right ascension
01h 20m 55s
True Declination
0° 00' 00"
Sunlit
Object was in daylight at epoch
Visualization orbit readout
Latitude
Unknown
Longitude
Unknown
Altitude
Unknown
Speed
Unknown
Apparent Right ascension
Unknown
Apparent Declination
Unknown
Sunlit
N/A
Visualization observer readout
Local Sidereal Time
00:50:08
Azimuth
Unknown
Elevation
Unknown
Doppler factor
Unknown
Orbital elements
Apogee altitude
1,144.568 km
Perigee altitude
1,064.117 km
Semi-major axis
7,482.48 km
Eccentricity
0.00538
Inclination
100.4357°
RAAN
20.2303°
Arg. of periapsis
248.8018°
True anomaly
111.31076°
Mean anomaly
110.736°
Eccentric anomaly
111.02352°
Mean motion
3.35332 °/min
Orbital period
107.36 mins
BSTAR
0.0022169
Loading maneuver chart data...
Computing Atmospheric mass density...
Loading historical data...
Loading historical data...
Loading historical data...
Loading historical data...
Loading historical data...
Loading historical data...
Loading historical data...

Documentation

Showing up to 5 results
|